BEAR Weather Reports


Display with metric or nautical units.
time (UTC)temp
F
wind
direction
speed
MPH
gust
MPH
rain 1hr
in
rain 24hr
in
rain mn
in
humidity
%
barometer
mb
20260506191548 41 229 0.0 2.0 0.00 0.00 0.00 97 1006.9
20260506190046 41 229 0.0 3.0 0.00 0.00 0.00 97 1007.1
20260506184516 41 278 0.0 3.0 0.00 0.00 0.00 97 1006.9
20260506183018 41 57 0.0 4.0 0.00 0.00 0.00 97 1006.9
20260506181559 41 39 0.0 6.0 0.00 0.00 0.00 97 1007.0
20260506180044 41 54 1.0 2.0 0.00 0.00 0.00 97 1007.2
20260506174541 41 61 0.0 2.0 0.00 0.00 0.00 97 1007.5
20260506173059 41 65 0.0 4.0 0.00 0.00 0.00 97 1007.8
20260506171547 41 71 1.0 4.0 0.00 0.00 0.00 97 1007.6
20260506170042 41 123 0.0 4.0 0.00 0.00 0.00 97 1007.2
20260506164513 41 77 1.0 4.0 0.00 0.00 0.00 97 1007.5
20260506163008 41 100 2.0 8.0 0.00 0.00 0.00 97 1007.2
20260506161506 41 185 1.0 2.0 0.00 0.00 0.00 97 1007.6
20260506160006 41 188 1.0 3.0 0.00 0.00 0.00 97 1008.0
20260506154514 41 183 0.0 3.0 0.00 0.00 0.00 97 1008.2
20260506153002 42 129 1.0 2.0 0.00 0.00 0.00 97 1007.8
20260506151600 42 128 0.0 2.0 0.00 0.00 0.00 97 1007.8
20260506150105 43 127 0.0 3.0 0.00 0.00 0.00 97 1007.7
20260506144602 43 66 0.0 2.0 0.00 0.00 0.00 97 1007.5
20260506143059 42 66 0.0 2.0 0.00 0.00 0.00 97 1007.7
20260506141555 42 66 0.0 6.0 0.00 0.00 0.00 97 1007.8
20260506140055 42 355 0.0 3.0 0.00 0.00 0.00 97 1008.1
20260506134553 42 65 1.0 3.0 0.00 0.00 0.00 97 1007.8
20260506133101 43 163 1.0 3.0 0.00 0.00 0.00 97 1007.3
20260506131558 42 235 1.0 9.0 0.00 0.00 0.00 97 1007.6
20260506130053 44 298 3.0 7.0 0.00 0.00 0.00 97 1008.1
20260506124546 43 46 6.0 11.0 0.00 0.00 0.00 97 1007.0
20260506123043 44 49 1.0 3.0 0.00 0.00 0.00 97 1007.8
20260506121544 44 38 2.0 8.0 0.00 0.00 0.00 97 1008.2
20260506120030 44 122 2.0 7.0 0.00 0.00 0.00 97 1008.1
20260506114528 44 69 0.0 6.0 0.00 0.00 0.00 97 1008.2
20260506113028 43 103 2.0 10.0 0.00 0.00 0.00 96 1008.2
20260506110025 46 95 1.0 4.0 0.00 0.00 0.00 97 1008.0
20260506104525 46 88 0.0 2.0 0.00 0.00 0.00 97 1007.9
20260506103035 46 98 1.0 3.0 0.00 0.00 0.00 97 1007.6
20260506100027 46 21 0.0 3.0 0.00 0.00 0.00 97 1008.0
20260506094523 46 340 1.0 3.0 0.00 0.00 0.00 97 1009.4
20260506093018 47 340 0.0 7.0 0.00 0.00 0.00 97 1008.5
20260506090023 47 66 4.0 11.0 0.00 0.00 0.00 97 1007.9
20260506084523 48 59 0.0 3.0 0.00 0.00 0.00 97 1008.2
20260506083020 48 87 2.0 3.0 0.00 0.00 0.00 97 1008.7
20260506081516 49 50 0.0 2.0 0.00 0.00 0.00 97 1008.3
20260506073010 50 190 1.0 2.0 0.00 0.00 0.00 97 1008.6
20260506071512 50 190 1.0 2.0 0.00 0.00 0.00 97 1008.2
20260506061501 51 191 0.0 3.0 0.00 0.00 0.00 96 1008.6
20260506044518 51 142 0.0 3.0 0.00 0.00 0.00 97 1008.4
20260506043046 51 144 0.0 3.0 0.00 0.00 0.00 96 1008.7
20260506041549 51 146 0.0 2.0 0.00 0.00 0.00 96 1008.6
20260506040042 51 144 0.0 2.0 0.00 0.00 0.00 96 1009.1
20260506034541 52 145 0.0 2.0 0.00 0.00 0.00 95 1008.9
20260506033038 52 144 1.0 6.0 0.00 0.00 0.00 94 1008.6
20260506031534 54 286 2.0 5.0 0.00 0.00 0.00 94 1008.4
20260506030002 55 115 0.0 3.0 0.00 0.00 0.00 94 1008.0
20260506024505 55 209 1.0 3.0 0.00 0.00 0.00 92 1007.7
20260506023031 56 261 1.0 2.0 0.00 0.00 0.00 88 1007.9
20260506021529 58 195 0.0 4.0 0.00 0.00 0.00 81 1007.8
20260506020026 58 136 2.0 5.0 0.00 0.00 0.00 80 1007.6
20260506014529 58 155 0.0 5.0 0.00 0.00 0.00 80 1007.8
20260506013023 58 200 1.0 6.0 0.00 0.00 0.00 81 1007.5
20260506011523 58 132 4.0 8.0 0.00 0.00 0.00 81 1006.7
20260506010019 58 167 2.0 10.0 0.00 0.00 0.00 81 1006.9
20260506004519 57 184 3.0 9.0 0.00 0.00 0.00 82 1006.5
20260506003017 57 110 2.0 7.0 0.00 0.00 0.00 83 1006.5
20260506001518 57 202 2.0 8.0 0.00 0.00 0.00 84 1006.5
20260506000015 57 169 2.0 7.0 0.00 0.00 0.00 85 1006.2
20260505234526 57 153 1.0 7.0 0.00 0.00 0.00 87 1006.3
20260505233045 58 168 2.0 7.0 0.00 0.00 0.00 82 1006.3
20260505231557 58 138 2.0 9.0 0.00 0.00 0.00 83 1005.7
20260505230053 58 188 1.0 10.0 0.00 0.00 0.00 84 1005.7
20260505224541 57 223 2.0 6.0 0.00 0.00 0.00 85 1005.7
20260505223040 58 262 1.0 8.0 0.00 0.00 0.00 83 1005.5
20260505221539 58 247 7.0 14.0 0.00 0.00 0.00 84 1005.9
20260505220036 57 205 3.0 11.0 0.00 0.00 0.00 87 1006.0
20260505214537 57 119 4.0 12.0 0.00 0.00 0.00 88 1005.8
20260505213044 58 360 0.0 11.0 0.00 0.00 0.00 86 1005.5
20260505211535 58 360 5.0 8.0 0.00 0.00 0.00 83 1005.6
20260505210005 59 360 3.0 8.0 0.00 0.00 0.00 84 1005.1
20260505204505 58 360 3.0 14.0 0.00 0.00 0.00 85 1005.0
20260505203033 58 360 0.0 3.0 0.00 0.00 0.00 90 1005.1
20260505201533 59 360 2.0 9.0 0.00 0.00 0.00 88 1004.6
20260505200030 59 360 1.0 9.0 0.00 0.00 0.00 90 1004.3
20260505194529 59 360 3.0 9.0 0.00 0.00 0.00 87 1004.8
20260505193028 64 360 7.0 27.0 0.00 0.00 0.00 71 1005.5